This is the latest recevied weather packets stored in our database for station/object KB4MOX. If no packets are shown the sender has not sent any weather packets the latest 10 day(s).
| Time | Temp. | Humidity | Pressure | Rain* | Wind** | Luminosity | Snow |
|---|---|---|---|---|---|---|---|
| 1788098000 | 24.44° C | 94% | 1022.6 hPa | 0 mm | - | 205 W/m² | - |
| 1788097696 | 24.44° C | 94% | 1022.8 hPa | 0 mm | - | 119 W/m² | - |
| 1788097396 | 24.44° C | 95% | 1022.8 hPa | 0 mm | - | 131 W/m² | - |
| 1788097092 | 24.44° C | 97% | 1022.7 hPa | 0 mm | - | 123 W/m² | - |
| 1788096787 | 23.89° C | 97% | 1022.6 hPa | 0 mm | - | 127 W/m² | - |
| 1788096482 | 23.89° C | 97% | 1022.6 hPa | 0 mm | - | 94 W/m² | - |
| 1788096179 | 23.89° C | 97% | 1022.5 hPa | 0 mm | - | 133 W/m² | - |
| 1788095877 | 23.89° C | 98% | 1022.5 hPa | 0 mm | - | 132 W/m² | - |
| 1788095572 | 23.89° C | 98% | 1022.5 hPa | 0 mm | - | 101 W/m² | - |
| 1788095268 | 23.89° C | 98% | 1022.4 hPa | 0 mm | - | 99 W/m² | - |
| 1788094968 | 23.89° C | 98% | 1022.4 hPa | 0 mm | - | 109 W/m² | - |
| 1788094661 | 23.33° C | 98% | 1022.4 hPa | 0 mm | - | 113 W/m² | - |
| 1788094356 | 23.33° C | 98% | 1022.3 hPa | 0 mm | - | 86 W/m² | - |
| 1788094054 | 23.33° C | 98% | 1022.4 hPa | 0 mm | - | 75 W/m² | - |
| 1788093750 | 23.33° C | 98% | 1022.2 hPa | 0 mm | - | 91 W/m² | - |
| 1788093446 | 23.33° C | 98% | 1022.2 hPa | 0 mm | - | 88 W/m² | - |
| 1788093143 | 22.78° C | 98% | 1022.3 hPa | 0 mm | - | 82 W/m² | - |
| 1788092840 | 22.78° C | 98% | 1022.1 hPa | 0 mm | - | 69 W/m² | - |
| 1788092535 | 22.78° C | 98% | 1022.4 hPa | 0 mm | - | 68 W/m² | - |
| 1788092230 | 22.78° C | 98% | 1022.2 hPa | 0 mm | - | 51 W/m² | - |
| 1788091930 | 22.78° C | 98% | 1022.2 hPa | 0 mm | - | 53 W/m² | - |
| 1788091630 | 22.78° C | 98% | 1022 hPa | 0 mm | - | 38 W/m² | - |
| 1788091327 | 22.78° C | 98% | 1022.3 hPa | 0 mm | - | 36 W/m² | - |
| 1788091022 | 22.78° C | 98% | 1022.2 hPa | 0 mm | - | 31 W/m² | - |
| 1788090718 | 22.78° C | 98% | 1022.1 hPa | 0 mm | - | 29 W/m² | - |
* Rain latest hour (hover to see other rain measurements)
** Current wind speed in m/s (hover to see current wind gust speed)